Location: Anjeux
(47.8815°N, 6.2076°E)
Time: 22:06:47
(UTC+00:00)

ISS - Pass Details

Date: 28 September 2021
Orbit: 417 x 423 km, 51.6° (Epoch: 20 October)

Event Time Altitude Azimuth Distance (km) Brightness Sun altitude
Rises 19:01:27 0° 291° (WNW) 2,366 1.8 -17.6°
Reaches altitude 10° 19:03:35 10° 295° (WNW) 1,502 0.3 -17.9°
Maximum altitude 19:06:55 60° 16° (NNE) 485 -3.5 -18.5°
Enters shadow 19:07:20 54° 53° (NE) 516 -3.6 -18.5°
